Regional Weather Roundup
Issued by NWS

Home | Current Version | Previous Version | Text Only | Print | Product List | Glossary Off
Versions: 1 2 3 4 5 6 7 8 9 10 11 12 13 14 15 16 17 18 19 20 21 22 23 24 25 26 27 28 29 30 31 32 33 34 35 36 37 38 39 40 41 42 43 44 45 46 47 48 49 50

000
ASUS43 KLSX 242310
RWRMO

WEATHER SUMMARY FOR MISSOURI
NATIONAL WEATHER SERVICE SPRINGFIELD MO
600 PM CDT SAT JUN 24 2017

NOTE: "FAIR" INDICATES FEW OR NO CLOUDS BELOW 12,000 FEET WITH NO
       SIGNIFICANT WEATHER AND/OR OBSTRUCTIONS TO VISIBILITY.
       CURRENT SKY AND/OR WEATHER CONDITIONS ARE NOT AVAILABLE FOR
       CHILLICOTHE AND FARMINGTON.

MOZ001>031-035>038-043-044-053-054-250000-
...NORTHERN AND WESTERN MISSOURI...

CITY           SKY/WX    TMP DP  RH WIND       PRES   REMARKS
KANSAS CTY INT CLOUDY    77  45  32 NW8       30.17F
KANSAS C DTWN  CLOUDY    79  43  27 W10       30.15F
LEE`S SUMMIT   SUNNY     75  45  34 NW6       30.18F
ST JOSEPH      SUNNY     80  43  26 NW12      30.15F
CHILLICOTHE      N/A     78  43  28 CALM      30.16F
KIRKSVILLE     SUNNY     75  43  31 W15       30.14F

$$
MOZ066>068-077>081-088>096-101>105-250000-
...SOUTHWEST MISSOURI...

CITY           SKY/WX    TMP DP  RH WIND       PRES   REMARKS
SPRINGFIELD    SUNNY     77  50  38 N6        30.16F
JOPLIN         SUNNY     80  51  36 N10       30.17F
BRANSON        PTSUNNY   79  50  36 N5        30.17F

$$
MOZ032>034-039>042-045>050-055>058-069>072-250000-
...CENTRAL MISSOURI...

CITY           SKY/WX    TMP DP  RH WIND       PRES   REMARKS
COLUMBIA       SUNNY     74  43  32 NW15      30.15R
JEFFERSON CITY SUNNY     78  43  28 NW13G22   30.14S
ROLLA          SUNNY     75  46  35 NW10      30.14S
SEDALIA        SUNNY     76  47  35 NW9       30.17S
WHITEMAN AFB   MOSUNNY   75  46  35 NW13      30.15F
WARRENSBURG    PTSUNNY   73  45  35 NW8       30.16F
OSAGE BEACH    SUNNY     77  46  33 N6        30.16S

$$
MOZ051-052-059>065-250000-
...EAST CENTRAL MISSOURI...

CITY           SKY/WX    TMP DP  RH WIND       PRES   REMARKS
ST LOUIS INTL  MOSUNNY   79  45  29 NW16      30.11S
SPIRIT OF STL  MOSUNNY   77  45  32 NW15G21   30.11R
ST CHARLES     SUNNY     77  44  30 NW10      30.10S

$$
MOZ072>076-082>087-097>100-106>115-250000-
...SOUTH CENTRAL AND SOUTHEAST MISSOURI...

CITY           SKY/WX    TMP DP  RH WIND       PRES   REMARKS
CAPE GIRARDEAU PTSUNNY   77  51  40 N5        30.09F
FARMINGTON     CLOUDY    77  46  33 NW8G17    30.12F
POPLAR BLUFF   MOSUNNY   76  58  53 N7        30.10F
WEST PLAINS    PTSUNNY   78  52  40 VRB5      30.15F

$$



USA.gov is the U.S. government's official web portal to all federal, state and local government web resources and services.